Temperature
6 6 6 6 6 6 6 6 6 7 7 7 7 7 7 7 7 6 6 6 5 5 4 4 4 4 4 4 4 4 4 4 4 4 4 3 4 4 4 4 4 4 3 3
5 6 6 5 5 6 6 6 6 6 6 7 8 8 7 7 6 6 6 5 5 4 4 4 4 4 4 4 4 4 3 3 3 3 3 3 3 3 3 3 3 3 3 3
4 5 5 4 5 5 5 5 6 5 6 6 6 6 6 6 6 6 5 5 4 4 4 4 3 3 3 3 3 3 3 3 3 3 3 3 3 3 3 3 3 3 2 2
3 4 3 5 5 5 5 5 5 5 5 5 5 5 6 5 5 5 4 4 4 3 3 3 3 3 3 3 3 2 2 2 2 2 2 2 2 2 2 2 2 2 2 2
3 3 4 5 4 4 4 4 4 4 4 4 5 5 5 5 4 4 4 4 3 3 3 3 3 3 2 2 2 2 2 2 2 2 2 2 2 2 2 2 2 1 1 1
2 3 3 4 4 5 5 3 4 4 3 4 3 2 3 4 4 3 3 3 3 2 2 2 2 2 2 2 2 1 2 2 2 2 1 1 1 1 1 1 1 1 1 1
2 2 3 3 3 4 3 2 3 3 3 3 2 2 3 3 3 3 3 2 2 2 2 2 2 1 1 1 1 1 1 1 1 1 1 1 1 1 0 0 0 0 0 0
2 2 1 2 2 2 2 3 3 3 3 2 2 2 2 2 2 2 2 2 1 1 1 1 1 1 1 1 1 1 0 0 0 0 0 0 0 0 -0 -0 -0 -0 -0 -0
1 1 2 2 2 2 3 2 2 2 2 2 2 1 1 1 1 1 1 1 1 1 1 1 0 0 0 0 0 0 0 -0 -0 -0 -0 -0 -0 -1 -1 -1 -1 -1 -1 -1
0 1 2 2 2 2 2 2 2 1 1 1 1 1 1 1 1 1 0 0 0 0 0 0 0 0 -0 -0 -0 -0 -0 -0 -0 -1 -1 -1 -1 -1 -1 -1 -1 -1 -1 -1
-0 1 1 1 1 1 1 1 1 1 1 0 0 0 0 0 -0 -0 -0 -0 -0 -0 -1 -0 -0 -0 -1 -1 -1 -1 -1 -1 -1 -1 -1 -1 -1 -1 -2 -2 -2 -2 -1 -1
-1 0 -0 -0 0 0 0 0 0 0 -0 -0 -0 -0 -0 -1 -1 -1 -1 -1 -1 -1 -1 -1 -1 -1 -1 -1 -1 -1 -1 -1 -2 -2 -2 -2 -2 -2 -2 -2 -2 -2 -2 -2
-0 -0 -1 -1 -1 -1 -1 -1 -1 -1 -1 -1 -1 -1 -1 -1 -1 -1 -1 -1 -1 -1 -1 -1 -1 -1 -1 -2 -2 -2 -2 -2 -2 -2 -2 -2 -2 -2 -2 -2 -2 -2 -2 -2
-1 -1 -1 -2 -2 -2 -2 -1 -1 -1 -1 -1 -1 -2 -2 -2 -2 -2 -2 -2 -2 -2 -2 -2 -2 -2 -2 -2 -2 -2 -2 -2 -2 -2 -2 -2 -3 -3 -3 -3 -3 -2 -2 -3
-2 -2 -2 -2 -2 -2 -2 -2 -2 -2 -2 -2 -2 -2 -2 -2 -2 -2 -2 -3 -3 -2 -2 -2 -2 -2 -2 -2 -2 -2 -3 -3 -3 -3 -3 -3 -3 -3 -3 -3 -3 -3 -3 -3
-3 -3 -3 -3 -3 -3 -3 -3 -3 -3 -3 -3 -3 -3 -3 -3 -3 -3 -3 -3 -3 -3 -3 -3 -3 -3 -3 -3 -3 -3 -3 -3 -3 -3 -3 -3 -3 -3 -3 -4 -4 -3 -3 -3
-4 -4 -4 -4 -4 -4 -4 -4 -4 -4 -4 -3 -3 -3 -3 -3 -3 -4 -3 -3 -4 -4 -3 -3 -3 -3 -3 -3 -3 -3 -3 -4 -4 -4 -4 -4 -4 -4 -4 -4 -4 -4 -4 -4
-4 -4 -4 -4 -4 -4 -4 -4 -4 -4 -4 -4 -4 -4 -4 -4 -4 -4 -4 -4 -4 -4 -4 -4 -4 -4 -4 -4 -4 -4 -4 -4 -4 -4 -4 -4 -4 -4 -4 -4 -4 -4 -4 -4
-5 -5 -5 -5 -5 -5 -5 -4 -5 -5 -5 -5 -5 -5 -5 -5 -5 -5 -5 -5 -5 -4 -4 -4 -4 -4 -4 -4 -4 -4 -4 -4 -4 -4 -4 -4 -5 -5 -4 -4 -4 -4 -5 -5
-5 -5 -5 -5 -5 -5 -5 -5 -5 -5 -5 -5 -5 -5 -5 -5 -5 -5 -5 -5 -5 -5 -5 -5 -5 -5 -5 -5 -5 -5 -5 -5 -5 -5 -5 -5 -5 -5 -5 -5 -5 -5 -5 -5
-6 -5 -5 -5 -5 -5 -5 -6 -6 -6 -6 -6 -6 -6 -6 -5 -5 -6 -6 -6 -5 -5 -5 -5 -5 -5 -5 -5 -5 -5 -5 -5 -5 -5 -5 -5 -5 -5 -5 -5 -5 -5 -5 -5
-6 -6 -6 -6 -6 -6 -6 -6 -6 -6 -6 -6 -6 -6 -6 -6 -6 -6 -6 -6 -6 -6 -6 -6 -6 -6 -6 -6 -6 -6 -6 -6 -6 -6 -6 -6 -6 -6 -6 -5 -5 -6 -6 -6
-7 -7 -7 -7 -7 -7 -7 -7 -7 -7 -7 -7 -7 -7 -7 -7 -7 -7 -6 -6 -6 -6 -6 -6 -6 -6 -6 -6 -6 -6 -6 -6 -6 -6 -6 -6 -6 -6 -6 -6 -6 -6 -6 -6
-7 -7 -7 -7 -7 -7 -7 -7 -7 -7 -7 -7 -7 -7 -7 -7 -7 -7 -7 -7 -7 -7 -7 -7 -7 -7 -7 -7 -7 -7 -7 -7 -7 -7 -6 -6 -6 -6 -6 -6 -6 -6 -6 -6
-8 -8 -8 -8 -8 -8 -8 -8 -8 -7 -8 -7 -7 -7 -7 -7 -7 -7 -7 -7 -7 -7 -7 -7 -7 -7 -7 -7 -7 -7 -7 -7 -7 -7 -7 -7 -7 -6 -6 -6 -6 -6 -6 -6
-8 -8 -8 -8 -8 -8 -8 -8 -8 -8 -8 -8 -8 -8 -8 -8 -8 -8 -8 -8 -8 -8 -8 -8 -8 -8 -8 -8 -8 -8 -8 -7 -7 -7 -7 -7 -7 -7 -7 -7 -7 -7 -7 -7
-9 -9 -9 -9 -9 -9 -9 -9 -9 -9 -9 -9 -8 -8 -8 -8 -8 -8 -8 -8 -8 -8 -8 -8 -8 -8 -8 -8 -8 -8 -8 -8 -8 -7 -7 -7 -7 -7 -7 -7 -7 -7 -7 -7
Wind_Speed
9 8 6 7 8 9 10 9 7 6 5 5 3 1 1 1 1 1 1 2 2 1 1 1 1 1 1 2 2 3 3 3 3 3 3 2 2 2 1 1 1 2 1 1
8 8 7 9 9 10 11 10 10 9 9 4 2 1 1 0 0 1 1 1 1 1 1 1 1 1 1 1 1 2 3 3 3 3 2 2 2 1 1 1 1 1 2 2
5 4 4 7 7 8 6 5 6 9 6 1 1 1 1 1 0 0 0 0 0 0 0 1 1 1 1 1 1 2 2 2 2 2 2 2 1 1 1 1 1 1 1 1
3 2 6 4 1 2 4 3 2 0 1 2 1 2 1 1 1 1 1 0 0 0 0 0 1 1 2 2 1 2 2 2 2 2 2 1 1 1 1 1 1 1 1 1
3 4 6 2 1 1 2 3 1 1 2 3 3 2 2 3 3 1 1 1 1 1 1 1 1 2 2 2 1 1 2 2 2 2 2 1 2 2 1 1 1 1 1 2
3 3 4 1 3 4 1 1 3 2 2 2 2 1 2 4 4 3 3 2 2 2 2 2 2 2 2 1 1 1 1 1 1 1 1 2 2 2 1 2 2 1 2 2
5 5 3 2 3 3 2 2 4 2 1 1 0 1 2 2 3 3 3 3 2 2 2 1 2 1 1 1 1 1 1 1 0 0 1 1 1 1 1 2 1 2 2 2
3 4 4 3 2 1 1 3 3 3 2 2 2 3 3 3 3 3 3 3 3 2 2 2 2 1 0 0 0 1 1 0 1 1 1 1 1 1 1 2 2 2 2 2
2 2 2 1 2 2 3 3 3 3 3 3 2 3 3 3 3 3 3 3 2 2 2 2 1 1 0 1 1 1 0 0 1 1 1 1 1 2 2 2 2 2 2 2
3 3 3 2 3 4 4 3 3 3 3 3 2 3 3 3 3 3 3 3 2 2 1 1 1 1 1 0 0 0 1 1 1 1 1 1 1 1 2 2 3 3 3 3
4 3 3 4 4 4 3 3 3 4 3 3 2 3 2 2 2 2 2 2 2 1 1 1 1 1 1 1 1 1 1 1 1 1 2 2 2 2 3 3 4 4 4 4
4 4 4 5 5 4 4 3 3 3 3 3 2 2 2 2 2 2 2 2 2 2 2 2 2 2 2 1 1 1 1 1 1 2 2 2 2 3 3 4 5 5 5 5
4 4 4 5 5 5 4 4 4 3 3 3 3 2 2 2 2 2 2 3 3 3 2 2 2 2 2 1 1 1 2 2 2 2 2 2 2 2 3 4 4 5 5 5
4 4 4 5 5 6 5 4 4 3 3 2 2 2 2 2 2 2 2 2 2 2 2 2 2 2 3 2 1 2 2 2 2 2 2 2 2 2 2 3 3 3 4 5
5 4 3 4 5 5 5 4 4 4 4 3 3 2 2 2 2 2 2 2 2 2 2 2 2 3 3 2 2 2 2 2 2 2 2 2 2 2 2 3 3 3 3 3
5 5 4 5 5 5 5 5 4 4 4 4 3 3 3 3 3 3 2 2 2 3 3 3 3 3 3 2 2 2 2 3 3 2 2 2 2 2 2 2 3 3 3 3
4 5 5 6 6 5 5 5 4 4 4 4 4 3 3 3 3 3 3 3 3 3 3 3 3 3 3 2 2 2 2 2 3 2 2 2 2 3 3 3 3 4 4 4
3 3 4 4 4 5 6 5 5 5 4 4 4 3 3 3 4 4 4 3 4 4 3 3 3 3 3 2 2 2 2 2 2 3 3 3 3 3 3 3 4 4 4 4
5 5 5 5 5 5 5 5 5 5 4 4 3 4 4 4 4 4 4 3 4 5 4 3 5 4 3 3 3 2 2 3 3 3 3 4 4 3 3 3 4 4 4 4
7 6 6 6 5 5 5 5 5 5 4 4 4 4 4 4 4 4 4 4 4 4 4 4 4 3 3 4 4 2 2 3 3 3 3 3 3 4 4 4 4 4 4 4
7 7 6 6 6 5 5 5 4 5 5 4 4 4 4 5 4 4 4 4 4 4 4 5 3 3 3 4 5 3 3 3 3 3 4 4 4 4 4 4 4 4 4 4
7 6 6 6 5 5 5 4 4 4 5 4 4 4 4 4 5 4 4 4 4 6 4 3 3 5 6 6 3 3 3 4 4 4 4 4 4 4 4 4 4 4 4 4
6 6 6 6 5 5 6 5 4 4 4 4 4 4 4 4 4 4 5 4 3 6 5 4 6 8 8 5 3 3 4 4 4 4 4 4 4 4 4 4 4 4 4 4
6 6 6 5 5 5 5 5 4 4 4 4 4 4 4 4 4 3 4 6 7 8 5 6 9 9 8 4 3 3 4 4 4 4 4 4 4 4 4 4 4 4 4 4
6 5 5 5 5 4 5 5 4 4 4 3 4 4 3 3 4 4 4 4 7 7 5 6 9 9 6 4 4 4 4 4 4 4 4 4 4 4 4 3 3 4 4 4
5 5 5 4 4 4 4 4 4 4 4 5 5 4 4 4 4 4 4 4 5 7 5 4 5 6 4 4 4 4 4 5 5 4 4 4 4 4 4 4 5 4 4 4
6 5 4 4 4 4 4 4 4 5 5 5 6 5 5 5 4 4 5 5 4 4 4 4 4 4 4 4 4 4 4 4 4 4 3 3 3 4 4 4 4 4 4 4
Wind_Direction
273 275 269 258 240 226 227 229 230 246 252 260 257 222 133 115 108 141 127 111 115 130 133 108 89 74 71 112 126 142 144 145 147 139 132 132 132 131 129 146 165 158 162 187
276 265 260 265 252 238 235 239 245 264 278 281 288 68 86 111 189 175 159 121 142 134 121 123 119 105 72 83 110 135 140 142 137 135 133 131 134 131 136 157 171 162 179 194
263 263 290 262 241 224 222 227 222 242 256 307 351 322 234 255 26 91 148 178 195 161 148 127 138 133 137 117 111 116 127 130 133 133 136 146 151 150 165 176 168 178 187 192
259 248 239 239 64 169 203 239 210 236 346 18 343 311 302 51 65 355 349 332 185 112 84 79 103 116 116 112 115 127 128 129 132 137 147 158 167 188 202 189 185 205 213 215
230 242 261 261 24 34 197 266 355 277 343 4 13 6 9 33 38 18 356 12 44 64 54 78 92 103 107 106 115 124 133 140 146 143 154 185 207 215 212 201 210 222 215 219
226 236 245 316 357 334 105 271 11 357 323 327 22 314 305 357 14 23 27 43 52 39 39 60 62 95 119 141 147 161 153 134 123 136 180 225 234 230 217 200 211 222 231 225
234 237 260 341 342 21 127 274 343 355 352 46 73 258 303 346 7 24 37 45 52 49 37 55 63 86 133 153 173 148 116 114 141 197 221 230 249 253 210 200 207 226 234 240
230 228 254 351 44 91 320 11 19 23 39 58 47 23 24 18 18 28 33 32 39 45 30 33 54 74 134 199 102 81 91 150 211 237 250 245 230 254 229 203 211 228 229 242
230 233 319 40 30 19 37 25 15 20 29 46 34 13 14 13 16 18 17 17 23 38 32 28 45 73 250 240 111 120 181 250 250 252 240 222 218 226 225 214 222 229 226 239
296 304 343 9 20 28 27 14 4 8 19 24 16 3 2 5 8 11 10 5 9 22 21 1 12 35 336 324 87 118 266 286 274 255 266 263 247 228 227 228 232 236 238 243
281 303 345 0 357 357 355 360 9 6 5 7 6 347 346 349 353 8 11 3 6 0 336 321 338 350 351 357 21 319 280 277 274 260 252 266 269 253 245 240 236 241 242 238
278 311 316 319 343 352 351 350 352 354 355 356 350 332 339 338 346 1 6 1 357 349 346 344 349 338 340 355 352 295 288 286 282 272 267 262 274 297 290 272 275 267 262 260
312 340 338 331 345 359 357 349 349 342 329 324 341 344 335 333 344 359 6 0 348 339 338 341 339 327 325 323 305 278 278 289 291 282 270 264 265 267 291 301 286 276 268 267
357 3 344 346 347 359 360 357 360 357 351 347 355 356 353 351 350 354 343 333 336 338 337 332 326 322 323 319 297 279 278 279 283 280 277 271 264 262 263 273 287 292 281 272
1 1 347 347 358 2 359 360 4 357 354 352 356 352 349 339 323 319 323 330 335 334 326 323 323 320 325 326 308 286 282 278 273 275 274 272 271 270 269 267 269 280 292 288
351 359 358 355 352 352 357 355 350 342 342 341 341 333 322 313 310 317 325 328 322 309 307 309 309 312 317 314 306 297 287 283 286 280 277 278 279 274 272 270 269 272 274 278
354 349 344 341 343 342 342 339 331 326 328 329 326 322 327 330 325 319 315 314 300 291 296 297 298 307 310 304 292 291 294 293 291 292 279 271 265 263 264 265 266 268 271 271
343 330 326 323 323 324 326 327 325 322 318 314 321 325 323 316 306 304 307 313 312 306 301 296 298 303 300 300 290 278 279 282 281 277 276 272 270 263 263 266 268 272 278 278
348 340 334 329 323 318 314 316 318 317 316 315 315 306 299 296 297 300 303 303 301 300 299 297 307 308 302 298 299 278 271 273 277 278 276 275 278 272 267 267 270 272 274 276
343 338 334 331 331 328 322 322 322 319 317 315 308 306 306 305 305 300 295 284 275 277 285 298 302 293 289 289 295 278 266 265 268 271 272 268 268 270 268 268 270 272 271 271
335 334 334 332 329 328 324 321 320 316 317 317 308 300 299 302 304 299 294 295 294 295 299 302 303 296 294 300 300 289 279 273 271 271 271 271 271 272 271 270 272 274 274 276
330 330 329 328 326 325 325 324 320 316 318 319 317 309 305 305 303 296 280 277 288 303 310 299 296 299 302 304 294 285 280 276 275 272 270 269 270 271 272 272 272 275 276 274
327 327 328 328 324 320 323 325 319 314 308 308 306 302 298 296 298 298 299 297 302 306 311 300 304 306 306 305 290 282 278 277 276 273 270 270 269 269 269 270 272 274 275 277
328 329 326 323 324 324 320 318 316 312 304 302 299 297 298 302 302 296 290 303 312 312 309 305 310 309 310 305 290 284 280 278 275 273 273 271 267 267 268 271 274 277 275 277
327 325 325 328 328 321 317 321 326 324 320 317 316 315 310 301 296 303 309 310 312 316 312 310 311 312 312 300 294 287 283 279 279 278 272 274 272 272 274 276 276 278 277 276
327 325 322 324 322 320 321 324 325 325 326 326 326 326 324 320 316 314 313 311 310 312 311 305 306 308 305 298 294 291 287 288 290 285 276 275 275 276 278 277 278 280 279 279
330 331 332 333 334 335 333 326 321 319 320 318 315 316 318 319 317 317 316 315 315 312 309 308 306 302 300 298 295 293 290 286 282 279 277 275 273 271 272 273 276 280 282 281
Height
1453 1450 1451 1451 1452 1453 1456 1454 1456 1449 1448 1447 1446 1447 1448 1450 1451 1452 1452 1453 1453 1453 1453 1453 1453 1454 1454 1454 1455 1455 1456 1457 1458 1460 1461 1462 1463 1463 1464 1465 1466 1466 1467 1467
1453 1448 1449 1449 1448 1448 1449 1449 1449 1447 1447 1444 1444 1445 1447 1448 1449 1450 1450 1451 1452 1452 1452 1452 1452 1452 1452 1452 1453 1454 1454 1455 1456 1457 1458 1459 1460 1461 1461 1462 1463 1463 1463 1464
1454 1448 1448 1450 1445 1444 1445 1444 1444 1447 1445 1443 1444 1445 1446 1447 1447 1448 1448 1449 1449 1450 1450 1450 1450 1450 1450 1451 1451 1452 1452 1453 1454 1455 1456 1456 1457 1458 1458 1459 1460 1460 1460 1461
1454 1452 1455 1443 1437 1438 1441 1441 1441 1441 1441 1442 1443 1444 1445 1445 1446 1446 1447 1447 1447 1447 1448 1448 1448 1448 1449 1449 1449 1450 1450 1451 1452 1453 1453 1454 1454 1455 1455 1456 1456 1457 1457 1457
1454 1451 1444 1439 1439 1439 1441 1442 1441 1442 1442 1443 1443 1443 1443 1444 1445 1445 1445 1445 1445 1445 1446 1446 1446 1446 1446 1447 1447 1448 1448 1449 1449 1450 1451 1451 1451 1452 1452 1453 1453 1454 1454 1454
1452 1451 1449 1442 1440 1437 1439 1444 1442 1442 1442 1443 1443 1445 1444 1443 1443 1443 1443 1443 1443 1443 1444 1444 1444 1444 1444 1444 1445 1445 1446 1446 1447 1447 1448 1448 1448 1449 1449 1450 1450 1451 1451 1451
1450 1450 1446 1443 1440 1438 1446 1447 1443 1442 1442 1442 1443 1444 1444 1442 1442 1442 1442 1442 1441 1441 1441 1442 1442 1442 1442 1443 1443 1444 1444 1444 1445 1445 1445 1445 1445 1446 1446 1446 1447 1447 1447 1447
1448 1450 1452 1444 1442 1444 1445 1443 1442 1442 1442 1442 1442 1442 1442 1442 1441 1441 1440 1440 1440 1440 1440 1440 1440 1440 1440 1441 1441 1441 1442 1442 1442 1442 1442 1442 1442 1443 1443 1443 1444 1444 1444 1444
1449 1450 1446 1444 1443 1443 1443 1443 1443 1443 1442 1442 1442 1442 1441 1441 1441 1440 1440 1439 1439 1438 1438 1438 1438 1439 1438 1439 1439 1439 1439 1439 1439 1439 1439 1440 1440 1440 1440 1440 1441 1441 1441 1441
1448 1446 1445 1444 1443 1443 1443 1443 1443 1443 1442 1442 1441 1441 1440 1440 1440 1439 1439 1438 1437 1437 1436 1436 1436 1437 1436 1436 1436 1436 1436 1436 1436 1436 1436 1437 1437 1437 1437 1437 1437 1437 1437 1437
1447 1445 1444 1443 1444 1444 1443 1443 1442 1442 1441 1441 1440 1440 1440 1439 1439 1438 1437 1437 1436 1435 1435 1435 1435 1434 1434 1434 1434 1434 1434 1434 1434 1434 1433 1433 1434 1434 1434 1434 1435 1435 1434 1434
1447 1445 1445 1444 1443 1443 1442 1441 1441 1440 1440 1440 1439 1439 1438 1438 1437 1437 1436 1435 1434 1434 1433 1433 1433 1433 1432 1432 1432 1432 1431 1431 1431 1431 1431 1430 1430 1430 1431 1431 1431 1431 1431 1431
1445 1444 1444 1443 1443 1442 1441 1440 1440 1439 1439 1438 1438 1437 1437 1436 1436 1435 1434 1433 1433 1432 1432 1431 1431 1431 1431 1430 1430 1429 1429 1428 1428 1428 1428 1428 1428 1427 1427 1427 1427 1427 1427 1427
1444 1444 1443 1442 1442 1441 1440 1439 1438 1437 1437 1436 1436 1435 1435 1434 1434 1433 1432 1432 1431 1431 1430 1429 1429 1428 1428 1428 1427 1427 1426 1426 1425 1425 1425 1425 1425 1424 1424 1424 1423 1423 1423 1423
1444 1443 1443 1442 1441 1440 1439 1438 1437 1436 1435 1434 1434 1433 1433 1432 1432 1431 1431 1430 1430 1429 1428 1427 1427 1426 1425 1425 1424 1424 1423 1423 1423 1422 1422 1422 1421 1421 1421 1421 1420 1419 1419 1419
1444 1442 1441 1440 1439 1438 1438 1437 1436 1435 1434 1433 1432 1431 1431 1431 1430 1429 1429 1428 1427 1426 1426 1425 1424 1424 1423 1422 1422 1421 1421 1420 1420 1419 1419 1419 1418 1418 1418 1417 1417 1416 1415 1415
1443 1442 1441 1440 1438 1438 1437 1436 1435 1434 1433 1431 1431 1430 1429 1428 1427 1427 1426 1425 1425 1424 1423 1423 1422 1421 1420 1420 1419 1418 1417 1417 1417 1416 1416 1415 1415 1415 1414 1414 1413 1412 1412 1412
1443 1442 1441 1440 1438 1437 1435 1434 1433 1432 1431 1430 1429 1428 1427 1426 1425 1424 1423 1422 1422 1421 1420 1420 1419 1418 1417 1417 1416 1415 1414 1414 1413 1413 1412 1412 1412 1411 1411 1410 1410 1409 1408 1408
1442 1440 1439 1438 1437 1435 1434 1432 1431 1430 1428 1427 1426 1425 1424 1423 1422 1421 1420 1419 1418 1417 1417 1416 1416 1415 1414 1414 1413 1412 1411 1411 1410 1410 1409 1409 1408 1408 1407 1407 1406 1405 1404 1404
1440 1439 1437 1436 1434 1433 1431 1430 1428 1427 1426 1424 1423 1422 1421 1420 1420 1418 1417 1416 1416 1415 1414 1413 1412 1411 1411 1410 1409 1408 1408 1407 1407 1406 1406 1405 1404 1404 1403 1403 1402 1401 1401 1400
1438 1437 1435 1433 1431 1430 1429 1427 1426 1424 1423 1422 1420 1419 1418 1417 1417 1416 1414 1413 1412 1412 1411 1410 1409 1408 1407 1406 1406 1405 1404 1404 1403 1402 1402 1401 1401 1400 1400 1399 1398 1398 1397 1396
1436 1434 1432 1430 1429 1427 1426 1424 1423 1421 1420 1419 1418 1417 1416 1414 1414 1413 1412 1411 1410 1409 1408 1407 1406 1405 1404 1403 1402 1401 1400 1400 1399 1399 1398 1398 1397 1396 1396 1395 1394 1393 1392 1391
1435 1432 1430 1428 1426 1425 1423 1422 1420 1419 1418 1416 1415 1414 1413 1412 1411 1410 1408 1408 1407 1406 1405 1403 1402 1401 1400 1399 1398 1397 1397 1396 1395 1395 1394 1394 1393 1392 1392 1391 1390 1389 1388 1387
1432 1430 1428 1426 1424 1423 1421 1420 1418 1417 1416 1415 1414 1413 1411 1410 1408 1407 1406 1405 1404 1402 1401 1400 1399 1398 1397 1396 1395 1394 1393 1392 1392 1391 1390 1390 1389 1388 1388 1387 1386 1385 1384 1383
1431 1428 1426 1425 1423 1421 1419 1418 1416 1415 1414 1413 1412 1410 1409 1408 1406 1404 1403 1402 1400 1399 1398 1396 1395 1394 1393 1392 1391 1390 1389 1389 1388 1387 1386 1386 1385 1384 1384 1383 1382 1381 1380 1379
1429 1427 1425 1423 1421 1420 1418 1416 1414 1413 1412 1410 1409 1408 1407 1405 1404 1402 1400 1399 1397 1396 1394 1393 1392 1391 1390 1389 1387 1386 1385 1385 1384 1383 1382 1382 1381 1380 1380 1379 1378 1377 1376 1375
1427 1425 1423 1421 1419 1418 1416 1415 1413 1411 1410 1408 1406 1405 1404 1402 1401 1399 1397 1396 1394 1393 1391 1390 1389 1388 1386 1385 1384 1383 1382 1381 1380 1379 1378 1378 1377 1376 1376 1375 1374 1374 1373 1372